sat.trackr.live / text

‹ back to catalog

STARLINK-2214

NORAD 48566 · 2021-041P

PAYLOAD ACTIVE UNKNOWN

§ Identity

Operator
Country
US
Launch date
2021-05-15
Launch site
AFETR
Launch vehicle
Mass (kg)
RCS (m²)

Purposes: comms

External: N2YO · Heavens-Above · Gunter

§ Orbital elements

Epoch: 2026-09-19T20:57:37.090944Z

Period
94.01 min
Inclination
53.1600°
Eccentricity
0.0001127
Mean motion
15.31706646 rev/d
Perigee alt
469.9 km
Apogee alt
471.5 km
Semi-major
6,848.9 km
B*
1.7266e-6
RAAN
325.2113°
Arg perigee
99.8158°
Mean anomaly
260.2970°
Rev number
29,470

§ Raw data

STARLINK-22141 48566U 21041P   26262.87334596 -.00000311  00000+0  17266-5 0  99922 48566  53.1600 325.2113 0001127  99.8158 260.2970 15.31706646294701

JSON: /api/v1/satellites/48566 · /tle

For live sub-satellite position, see the globe view (requires WebGL).

§ Visibility from observer

Set your observer location to see the next 7 days of passes ≥ 10°. The values pass through the URL so the page stays shareable.

No JS? Fill the form by hand. The geolocation button needs JavaScript.